TimeMST,TemperatureF,Dew PointF,Humidity,Sea Level PressureIn,VisibilityMPH,Wind Direction,Wind SpeedMPH,Gust SpeedMPH,PrecipitationIn,Events,Conditions,WindDirDegrees,DateUTC
12:53 AM,21.9,14.0,72,29.92,-9999.0,East,3.5,-,N/A,,Overcast,80,2013-02-19 07:53:00
1:53 AM,21.0,14.0,74,29.88,-9999.0,SE,6.9,-,N/A,,Partly Cloudy,130,2013-02-19 08:53:00
2:53 AM,24.1,12.0,60,29.84,-9999.0,Calm,Calm,-,N/A,,Mostly Cloudy,0,2013-02-19 09:53:00
3:53 AM,21.0,14.0,74,29.84,-9999.0,Calm,Calm,-,N/A,,Overcast,0,2013-02-19 10:53:00
4:53 AM,23.0,14.0,68,29.82,-9999.0,East,4.6,-,N/A,,Overcast,80,2013-02-19 11:53:00
5:53 AM,23.0,14.0,68,29.83,-9999.0,ESE,5.8,-,N/A,,Overcast,110,2013-02-19 12:53:00
6:53 AM,21.9,15.1,75,29.85,-9999.0,SE,5.8,-,N/A,,Overcast,130,2013-02-19 13:53:00
7:53 AM,24.1,15.1,69,29.83,-9999.0,SSE,3.5,-,N/A,,Overcast,150,2013-02-19 14:53:00
8:53 AM,26.1,15.1,63,29.81,10.0,ESE,4.6,-,N/A,,Overcast,120,2013-02-19 15:53:00
9:53 AM,27.0,12.0,53,29.81,10.0,SSW,3.5,-,N/A,,Overcast,200,2013-02-19 16:53:00
11:53 AM,33.1,10.0,38,29.75,10.0,Calm,Calm,-,N/A,,Partly Cloudy,0,2013-02-19 18:53:00
12:53 PM,36.0,12.0,37,29.71,10.0,Calm,Calm,-,N/A,,Clear,0,2013-02-19 19:53:00
1:53 PM,37.9,14.0,38,29.68,10.0,Calm,Calm,-,N/A,,Clear,0,2013-02-19 20:53:00
2:53 PM,39.0,15.1,38,29.65,10.0,Variable,4.6,-,N/A,,Clear,0,2013-02-19 21:53:00
3:53 PM,39.0,16.0,39,29.67,10.0,SSW,5.8,-,N/A,,Clear,210,2013-02-19 22:53:00
5:53 PM,33.1,17.1,52,29.69,10.0,SSE,3.5,-,N/A,,Clear,150,2013-02-20 00:53:00
6:53 PM,28.9,17.1,61,29.72,10.0,Calm,Calm,-,N/A,,Clear,0,2013-02-20 01:53:00
7:53 PM,28.0,17.1,63,29.73,10.0,West,6.9,-,N/A,,Clear,260,2013-02-20 02:53:00
8:53 PM,27.0,17.1,66,29.74,10.0,WSW,5.8,-,N/A,,Clear,240,2013-02-20 03:53:00
9:53 PM,25.0,17.1,72,29.76,10.0,SE,5.8,-,N/A,,Clear,140,2013-02-20 04:53:00
10:53 PM,24.1,17.1,75,29.76,10.0,South,4.6,-,N/A,,Clear,170,2013-02-20 05:53:00
11:53 PM,24.1,17.1,75,29.75,10.0,South,5.8,-,N/A,,Clear,180,2013-02-20 06:53:00